Location: Praha
(50.0830°N, 14.4670°E)
Time: 10:19:11
(UTC+01:00)

ISS - Pass Details

Date: 29 January 2023
Orbit: 412 x 423 km, 51.6° (Epoch: 06 February)

Event Time Altitude Azimuth Distance (km) Brightness Sun altitude
Rises 17:38:21 0° 280° (W) 2,379 1.3 -7.9°
Reaches altitude 10° 17:40:28 10° 283° (WNW) 1,515 0.1 -8.2°
Maximum altitude 17:43:52 70° 8° (N) 456 -3.7 -8.7°
Enters shadow 17:46:59 12° 92° (E) 1,408 -1.7 -9.2°
